Observations for Trim Market St
| Time | AQI | Temp °C | Hum % | Pres Pa | CO μg/m³ | H₂S μg/m³ | NO μg/m³ | NO₂ μg/m³ | O₃ μg/m³ | SO₂ μg/m³ | PM1 μg/m³ | PM2.5 μg/m³ | PM10 μg/m³ |
|---|---|---|---|---|---|---|---|---|---|---|---|---|---|
| Wednesday 15 July 2026 | |||||||||||||
| 13:54 | 1 | 37 | 30 | 66,651 | 0 | 0 | 0 | 0.24 | 33.73 | 0.79 | 7.13 | 10.34 | 13.56 |
| 13:53 | 1 | 37 | 31 | 66,635 | 0 | 0 | 0 | 0 | 21.08 | 1.2 | 9.26 | 13.04 | 16.99 |
| 13:52 | 1 | 36.9 | 31 | 66,619 | 0 | 0 | 0 | 2.02 | 40.89 | 1.04 | 7.84 | 11.94 | 16.12 |
| 13:51 | 1 | 36.9 | 31 | 66,625 | 0 | 0 | 0 | 2.64 | 33.8 | 0.69 | 7.13 | 12.5 | 16.13 |
| 13:50 | 1 | 36.9 | 31 | 66,606 | 0 | 0 | 0 | 8.14 | 25.61 | 0 | 6.41 | 10.87 | 13.55 |
| 13:49 | 1 | 36.8 | 31 | 66,608 | 0 | 0 | 0 | 6.56 | 24.49 | 0.39 | 7.13 | 11.41 | 15.27 |
| 13:48 | 1 | 36.8 | 31 | 66,612 | 0 | 0 | 0 | 7.27 | 23.14 | 0 | 8.55 | 13.04 | 18.72 |
| 13:47 | 1 | 36.8 | 31 | 66,592 | 0 | 0 | 0 | 4.26 | 25.63 | 0.3 | 7.13 | 9.78 | 13.55 |
| 13:46 | 1 | 36.8 | 31 | 66,590 | 0 | 0 | 0 | 12.66 | 31.88 | 0 | 7.13 | 12.49 | 16.99 |
| 13:44 | 1 | 36.7 | 31 | 66,592 | 0 | 0 | 0 | 6.56 | 24.86 | 0.05 | 8.55 | 12.48 | 16.12 |
| 13:42 | 1 | 36.6 | 31 | 66,558 | 0 | 3.11 | 0 | 14.99 | 24.02 | 0 | 9.26 | 14.1 | 19.55 |
| 13:41 | 1 | 36.6 | 30 | 66,550 | 0 | 0.51 | 0 | 12.93 | 30.51 | 0 | 7.13 | 10.88 | 13.55 |
| 13:40 | 1 | 36.7 | 30 | 66,572 | 0 | 0 | 0 | 4.43 | 28.09 | 0.65 | 7.13 | 10.89 | 15.29 |
| 13:35 | 1 | 36.9 | 30 | 66,598 | 0 | 0 | 0 | 0.19 | 19.84 | 0.62 | 7.13 | 10.9 | 16.16 |
| 13:26 | 1 | 36.9 | 30 | 66,612 | 0 | 0 | 0 | 7.46 | 24.32 | 0 | 6.41 | 11.97 | 16.15 |
| 13:25 | 1 | 36.9 | 30 | 66,621 | 0 | 0 | 0 | 9.05 | 18.75 | 0 | 9.26 | 13.05 | 17 |
| 13:24 | 1 | 36.9 | 31 | 66,602 | 0 | 0 | 0 | 3.34 | 21.62 | 0 | 7.13 | 13.04 | 17.86 |
| 13:23 | 1 | 36.9 | 31 | 66,604 | 0 | 0 | 0 | 3.33 | 29.96 | 0.05 | 8.55 | 11.95 | 16.13 |
| 13:22 | 1 | 36.9 | 31 | 66,576 | 0 | 0 | 0 | 5.34 | 24.09 | 0 | 7.84 | 11.96 | 15.27 |
| 13:21 | 1 | 36.8 | 31 | 66,574 | 0 | 0 | 0 | 2.56 | 30.14 | 0 | 7.84 | 12.49 | 16.99 |